Tracking 29892 objects as of 21-Nov-2024
HD Live streaming from Space Station
objects crossing your sky now

THOR BURNER 2 R/B

Track THOR BURNER 2 R/B now!
10-day predictions


NORAD ID: 7817
Int'l Code: 1975-043B
Perigee: 795.9 km
Apogee: 871.9 km
Inclination: 98.7 °
Period: 101.4 minutes
Semi major axis: 7204 km
RCS: Unknown
Launch date: May 24, 1975
Source: United States (US)
Launch site: AIR FORCE WESTERN TEST RANGE (AFWTR)

Note: This is a ROCKET BODY
Your satellite tracking list
Your tracking list is empty




NASA's NSSDC Master Catalog

Two Line Element Set (TLE):
1 07817U 75043B   24325.63982990  .00000225  00000-0  12600-3 0  9995
2 07817  98.7243 169.9737 0052755 324.1579  35.6062 14.19588653282010
Source of the keplerian elements: AFSPC